Theta_e
338 341 342 341 338 337 337 336 337 337 336 338 336 338 339 340 340 340 341 339 338 339 341 338 332 332 335 336 336 336 336 338 338 340 339 333 339 333 334 332 330 330 332
338 339 342 342 343 335 335 337 342 338 338 338 340 339 339 337 339 340 337 337 339 339 335 331 331 330 333 333 334 335 336 337 337 339 337 332 335 338 341 337 334 333 331
343 343 343 343 341 334 336 335 334 331 335 337 337 340 337 336 338 338 340 335 334 332 331 335 334 332 333 329 332 335 337 337 336 333 333 332 336 340 342 344 339 338 335
342 342 342 341 337 332 334 336 329 336 335 329 331 337 338 329 328 332 331 333 339 337 333 334 334 334 333 333 329 331 337 339 342 339 337 337 336 337 340 342 341 336 339
340 340 342 337 332 336 339 334 335 332 327 331 329 326 327 325 327 329 332 338 335 336 338 338 337 335 336 339 340 340 338 340 340 337 336 337 334 331 332 338 338 336 336
333 331 328 327 330 334 331 333 328 329 333 331 330 330 331 332 329 328 333 335 335 334 336 339 338 338 341 340 341 341 340 341 335 333 337 336 336 337 327 333 331 335 332
330 330 325 327 335 333 335 330 328 335 333 331 331 330 330 330 331 333 335 336 336 337 338 337 336 336 336 339 339 337 341 341 340 337 335 332 337 333 326 328 333 331 327
333 334 324 329 336 329 326 326 333 331 329 328 329 334 337 339 339 337 334 333 331 331 331 331 332 334 338 339 339 336 338 340 338 336 335 334 339 334 327 327 341 336 328
337 329 324 328 328 324 324 328 329 330 334 340 344 344 344 345 343 342 342 342 341 342 341 340 337 335 337 339 337 337 338 337 335 336 335 336 340 337 335 333 339 335 327
335 326 328 326 333 328 327 328 337 344 344 339 343 346 342 340 343 342 344 343 342 343 344 343 341 339 340 339 337 336 337 337 334 334 338 338 340 340 339 339 338 336 335
333 327 326 331 331 327 327 338 343 343 341 342 342 343 344 345 343 345 344 338 342 342 343 342 341 340 340 338 339 338 336 336 336 335 335 336 340 340 339 341 342 342 341
325 331 326 325 327 332 341 346 346 343 343 344 345 345 344 344 345 345 344 345 343 343 344 344 342 341 342 341 340 339 337 336 336 336 337 338 339 339 340 340 340 339 339
324 329 326 328 342 344 343 341 342 343 341 343 345 345 344 345 345 346 346 345 343 344 343 344 344 340 343 343 342 341 341 339 338 338 339 340 340 339 339 339 339 339 339
333 327 331 344 344 344 344 344 344 346 343 342 344 344 344 344 344 344 345 344 344 344 344 343 344 343 344 343 343 342 343 342 342 340 339 339 339 339 339 339 337 331 329
340 328 344 345 344 346 346 345 346 344 343 344 344 344 343 346 347 347 347 345 346 344 345 345 344 345 343 343 341 341 343 343 343 343 343 341 340 340 336 334 332 330 326
340 330 342 345 345 346 346 346 344 343 345 343 342 345 345 345 348 347 346 349 346 346 344 346 347 347 346 344 343 343 343 344 344 343 343 341 339 339 337 334 332 328 327
336 337 342 342 343 346 345 346 346 343 342 342 344 347 346 346 349 348 348 349 350 345 343 345 348 345 347 345 344 343 341 344 344 344 343 342 341 340 337 333 329 325 326
337 341 341 341 344 346 345 345 347 348 342 344 344 346 347 348 349 349 349 349 350 344 343 348 347 344 339 343 344 343 344 345 344 345 345 344 343 341 335 331 326 325 327
339 339 340 341 343 346 345 344 346 347 348 345 342 347 348 348 347 347 349 348 348 346 342 344 345 336 337 338 344 343 344 345 345 345 345 344 343 337 332 327 325 325 326
343 341 342 343 341 342 346 346 345 347 348 347 342 343 347 348 348 349 348 345 347 346 338 338 341 335 339 340 343 341 343 345 345 343 345 345 341 334 331 327 325 326 325
346 346 344 342 343 342 345 344 345 347 348 345 347 345 341 339 339 341 345 343 346 346 340 335 334 334 338 343 344 344 345 345 343 341 345 341 334 333 329 326 325 326 325
344 346 346 344 343 342 343 344 344 347 347 346 347 346 342 340 341 341 342 339 339 347 344 332 326 330 335 336 338 340 338 340 340 342 341 335 333 330 329 326 325 326 325
343 344 345 345 344 339 342 344 345 346 345 346 345 347 342 342 342 347 349 348 345 345 346 342 333 319 324 328 333 334 331 331 337 334 333 328 327 326 327 326 326 326 326
345 345 345 345 339 333 339 343 344 346 344 344 345 347 343 345 347 346 349 350 350 347 347 343 339 323 315 316 319 323 323 322 331 328 327 326 324 322 325 326 326 326 325
345 346 345 344 335 336 339 342 342 344 343 344 345 347 345 345 345 347 349 350 351 350 344 341 341 334 316 313 315 316 316 318 321 321 319 320 317 319 323 326 326 325 324
345 346 346 344 342 338 338 341 342 343 343 344 345 347 344 344 345 347 350 350 351 351 348 348 342 341 325 313 313 313 313 314 314 313 314 315 317 322 325 326 326 324 324
Wind_Speed
16 14 13 12 10 10 9 9 10 11 11 10 10 11 11 12 11 10 11 9 8 8 8 7 7 5 4 3 3 5 5 5 4 7 8 8 9 8 11 9 8 8 8
17 15 13 11 10 9 9 10 11 11 12 12 13 12 12 12 11 11 10 10 9 10 9 9 9 7 7 6 6 7 8 8 8 8 9 9 10 7 7 8 7 7 6
17 14 12 11 9 9 10 10 9 10 11 11 12 11 12 11 11 11 9 10 10 9 9 9 7 5 5 6 5 6 6 8 9 10 9 8 8 7 5 4 5 5 5
17 15 13 11 9 10 11 11 11 11 10 10 12 12 11 10 10 10 9 10 11 10 9 7 5 4 4 4 5 5 7 6 5 7 9 7 6 4 2 3 2 3 3
15 15 13 10 11 11 12 11 11 11 11 13 13 12 12 11 11 11 10 10 10 9 8 6 4 2 2 3 4 2 3 3 2 4 7 7 5 4 0 1 1 2 3
14 13 12 12 13 12 12 11 11 12 12 12 12 12 12 12 12 11 10 8 7 6 6 3 2 0 4 5 4 5 1 1 6 9 6 4 1 1 2 2 1 2 2
14 12 12 12 12 12 12 12 13 12 12 12 11 11 11 10 9 8 7 5 5 5 4 1 0 3 5 5 7 6 1 4 6 5 2 5 3 1 3 3 3 2 1
12 13 12 13 12 11 12 12 12 11 11 12 11 11 10 8 7 7 4 4 3 3 1 1 2 4 6 7 8 11 7 2 3 6 9 8 5 3 4 4 3 2 1
12 11 12 12 12 13 13 12 12 12 12 9 7 7 6 7 5 5 5 4 4 4 2 2 2 4 4 7 10 13 9 4 4 8 15 11 6 4 4 3 3 0 1
13 11 12 14 14 14 14 14 12 11 9 7 5 4 4 5 4 4 4 4 4 4 4 5 6 6 6 7 11 13 11 11 9 9 9 6 5 4 3 2 2 2 2
15 14 14 14 14 13 14 14 13 10 12 11 11 9 9 7 6 6 6 7 7 7 7 5 8 9 10 12 13 14 13 10 7 6 5 4 3 2 2 2 2 3 3
16 16 16 16 15 15 14 11 10 10 13 13 12 10 9 9 7 8 7 6 8 9 10 10 9 8 8 11 13 15 13 11 8 7 5 4 3 3 2 3 4 5 5
17 17 18 19 17 15 13 13 11 11 11 11 12 13 12 11 10 10 9 9 8 8 9 8 8 7 6 7 9 9 11 9 8 6 5 4 4 3 4 5 6 7 7
19 19 21 20 17 13 13 13 11 11 11 11 10 10 11 11 11 11 11 12 10 9 7 6 6 6 5 5 5 5 5 6 5 5 6 5 5 4 6 7 8 10 12
20 21 23 19 17 13 13 10 8 9 10 10 12 9 10 11 11 9 10 8 8 8 9 8 6 6 4 2 3 2 1 1 2 3 5 7 7 7 6 7 8 11 14
21 24 22 19 16 14 12 11 8 9 11 12 12 12 9 6 6 6 8 8 8 7 5 6 3 3 2 2 2 2 1 4 3 5 5 3 5 5 5 6 9 12 12
22 25 21 18 15 13 14 12 9 9 10 14 11 9 8 7 7 6 7 6 10 10 4 1 4 5 4 3 5 3 3 5 4 2 2 2 1 3 3 6 10 13 12
25 25 20 18 15 14 14 12 10 9 11 11 8 7 6 4 3 4 6 7 10 9 9 2 4 7 8 5 2 3 4 5 3 3 3 1 3 2 2 6 10 12 9
25 24 20 19 16 13 14 12 10 9 9 10 10 9 4 4 3 4 6 7 8 9 9 5 4 7 7 3 4 2 3 5 2 4 4 4 4 1 4 8 10 9 10
24 22 19 18 16 15 13 13 12 9 9 10 9 6 4 2 2 5 6 7 7 9 10 6 5 6 6 2 4 4 3 5 4 4 5 6 5 4 5 7 7 9 10
27 25 21 21 19 18 16 17 15 11 10 9 7 4 4 1 2 5 4 6 6 7 9 6 6 3 3 4 3 5 5 5 5 6 8 7 7 9 8 7 7 7 9
29 28 25 23 22 20 21 18 16 13 10 10 6 3 2 1 3 2 5 5 4 7 8 7 4 1 5 3 3 3 2 3 6 8 8 9 11 12 11 10 9 7 8
32 27 28 25 24 22 25 23 20 17 13 11 9 4 2 2 2 3 7 10 6 5 6 7 5 3 3 7 11 9 3 5 8 8 10 11 12 12 13 13 11 8 7
33 29 30 25 23 24 26 27 24 20 16 12 7 5 4 2 1 1 3 6 9 7 7 8 7 5 1 3 3 6 8 7 6 5 11 13 13 13 14 14 11 9 8
31 34 32 27 25 24 28 29 26 24 20 15 10 9 5 4 3 4 5 6 9 9 8 7 7 7 5 0 2 2 2 3 6 8 8 10 13 11 9 10 10 8 9
32 36 35 31 26 25 30 30 27 26 23 19 15 11 7 8 7 6 7 9 7 9 7 8 6 6 5 3 1 1 2 3 4 4 5 7 7 6 7 9 10 12 13
Wind_Direction
154 151 131 127 127 127 119 111 110 107 111 113 116 117 116 117 115 119 119 122 130 131 136 128 107 114 123 121 125 133 135 136 132 125 116 108 105 103 90 84 90 81 82
153 155 143 140 132 128 119 115 112 113 109 108 110 110 111 111 115 113 116 120 121 124 123 115 116 115 107 106 104 105 104 116 130 136 136 129 126 126 102 85 82 83 78
158 154 149 144 140 130 124 121 120 113 115 115 112 110 107 115 118 116 116 122 118 119 122 122 113 109 110 100 111 108 98 106 114 129 135 132 127 123 111 118 87 72 105
149 148 143 140 140 133 127 120 115 115 114 112 112 111 103 108 111 120 123 120 119 116 119 125 119 116 99 79 80 95 105 126 127 127 127 122 119 101 101 107 110 61 50
147 145 140 147 143 132 128 124 121 117 115 113 112 112 112 107 109 113 119 122 118 119 115 103 109 109 38 16 9 78 125 127 146 169 152 109 88 70 131 152 4 51 25
147 145 146 139 133 130 128 126 125 124 117 112 108 111 109 108 108 115 126 135 125 116 102 115 129 52 354 353 0 349 3 141 107 121 129 171 112 56 149 182 218 79 5
142 142 137 137 132 128 124 127 128 125 119 112 111 110 108 109 110 115 119 123 117 107 111 117 41 15 360 344 16 346 124 195 193 197 191 156 150 87 139 155 129 105 13
140 136 131 137 134 132 131 134 128 123 115 111 109 105 98 97 100 105 106 97 94 79 63 273 332 18 13 350 21 31 152 151 205 204 205 165 166 140 134 142 123 167 182
141 136 136 144 136 131 131 131 125 118 109 112 111 106 98 99 106 109 100 87 81 74 39 334 356 32 35 350 22 56 111 94 130 157 158 170 175 135 114 92 107 63 5
144 140 139 144 136 135 133 130 123 116 105 108 130 136 136 113 106 93 76 90 86 67 57 65 73 71 61 16 19 51 89 118 138 132 152 152 144 114 92 77 85 65 0
148 146 144 147 139 136 133 128 116 107 103 97 108 108 115 107 96 90 106 110 58 66 69 68 76 90 75 63 50 66 89 112 116 124 147 160 129 103 38 19 32 35 348
152 150 147 147 141 134 132 128 119 116 103 97 100 103 103 108 101 110 100 100 83 71 75 68 70 83 79 70 78 70 71 85 98 104 99 90 91 92 65 32 35 21 358
154 155 150 145 140 130 124 122 112 119 111 102 97 104 105 103 99 89 83 87 86 74 65 62 53 56 76 82 81 87 86 92 96 103 102 95 90 92 62 47 36 15 352
155 154 150 146 140 136 131 115 112 115 110 112 108 108 99 96 97 87 84 83 80 70 53 55 56 49 67 83 89 98 93 88 89 97 90 80 69 74 67 53 40 25 359
159 162 154 148 141 130 125 130 128 116 117 106 112 102 101 96 94 76 76 76 53 42 48 50 73 68 60 58 88 104 96 158 109 91 109 78 74 68 58 51 26 4 354
167 165 161 154 147 138 131 122 121 117 114 102 116 102 96 93 84 81 83 69 50 28 18 37 43 20 30 18 0 279 107 180 148 119 138 109 96 79 48 40 11 354 354
171 167 165 160 159 148 143 133 120 110 121 110 112 102 87 95 96 69 69 37 18 19 35 251 334 338 320 327 342 156 144 167 161 159 151 132 76 49 24 7 358 351 355
172 173 170 167 168 161 156 149 136 119 114 119 115 119 110 106 78 63 31 23 22 31 24 354 318 320 313 264 242 135 134 163 183 218 228 209 269 218 357 356 356 357 354
178 177 176 173 175 161 167 168 158 149 128 122 118 131 116 79 56 21 10 21 19 16 18 29 355 343 348 211 211 191 167 178 200 231 245 250 257 286 323 343 348 13 14
193 191 186 180 184 179 187 184 178 163 158 133 126 125 150 95 18 359 13 8 19 9 20 55 32 17 31 113 198 214 203 195 203 227 234 249 249 261 294 305 345 20 12
205 204 206 197 193 194 191 193 190 179 170 158 144 119 133 117 335 324 327 2 12 15 22 48 53 55 74 87 144 169 172 191 231 223 233 244 247 263 275 288 326 352 355
210 215 217 211 204 203 202 203 201 190 187 179 164 137 111 77 34 50 41 26 19 14 15 27 38 113 209 169 156 171 186 234 227 237 244 247 258 260 267 277 297 312 333
212 216 213 209 210 212 202 207 206 200 200 196 185 165 124 124 126 87 44 40 29 17 19 22 18 24 222 230 228 237 268 252 234 239 249 261 267 265 258 263 273 273 290
211 216 207 203 208 201 202 204 207 207 207 209 205 190 175 141 118 277 357 11 18 16 13 12 20 26 345 228 224 235 258 268 217 270 256 266 272 276 264 260 251 256 279
210 203 203 201 203 204 204 203 210 214 219 219 211 209 212 212 249 279 315 336 347 6 16 15 12 12 12 1 236 251 258 249 247 261 267 263 287 286 274 236 241 254 267
206 202 201 202 203 204 205 206 210 216 218 222 218 222 232 221 251 272 312 310 319 348 358 5 7 6 10 0 290 324 325 305 288 280 281 290 293 294 245 236 243 259 273